Sisters Island, British Columbia

6:28 AM PDT on April 26, 2017 (GMT -0700)
Sisters Island

Weather History for CWGT - April, 2013

Change the Weather History Date:

Thursday, April 18, 2013

  Actual Average Record
Temperature  
Mean Temperature 46 °F -  
Max Temperature 47 °F - - ()
Min Temperature 44 °F - - ()
Degree Days  
Heating Degree Days 20    
Moisture  
Dew Point 42 °F    
Average Humidity 85    
Maximum Humidity 91    
Minimum Humidity 75    
Precipitation  
Precipitation 0.00 in - - ()
Sea Level Pressure  
Sea Level Pressure 30.29 in    
Wind  
Wind Speed 18 mph ()    
Max Wind Speed 34 mph    
Max Gust Speed 39 mph    
T = Trace of Precipitation, MM = Missing Value Source: Averaged Metar Reports

Daily Weather History Graph

Daily Weather History Graph

Search for Another Location

Airport or City:

Trip Planner

Search our weather history database for the weather conditions in past years. The results will help you decide how hot, cold, wet, or windy it might be!

Date:

Astronomy

Apr. 18, 2013 Rise Set
Actual Time 6:19 AM PDT 8:15 PM PDT
Civil Twilight 5:44 AM PDT 8:50 PM PDT
Nautical Twilight 5:02 AM PDT 9:32 PM PDT
Astronomical Twilight 4:15 AM PDT 10:20 PM PDT
Moon 12:31 PM PDT (4/18) 2:40 AM PDT (4/18)
Length of Visible Light 15h 05m
Length of Day
13h 56m
First Quarter, 53% of the Moon is Illuminated
Apr 18
First Quarter
Apr 25
Full
May 2
Last Quarter
May 9
New
May 17
First Quarter

Hourly Weather History & Observations

Time (PDT) Temp. Windchill Dew Point Humidity Pressure Visibility Wind Dir Wind Speed Gust Speed Precip Events Conditions
12:00 AM 45.9 °F 38.5 °F 38.5 °F 75% 30.38 in - SW 18.4 mph - N/A   Unknown
1:00 AM 45.0 °F 36.4 °F 38.5 °F 78% 30.38 in - SW 23.0 mph - N/A   Unknown
2:00 AM 44.8 °F 38.0 °F 38.7 °F 79% 30.38 in - SW 15.0 mph - N/A   Unknown
3:00 AM 44.8 °F 39.0 °F 38.7 °F 79% 30.37 in - SW 11.5 mph - N/A   Unknown
4:00 AM 45.3 °F 41.6 °F 40.8 °F 84% 30.38 in - South 6.9 mph - N/A   Unknown
5:00 AM 46 °F - 41 °F 75% 30.39 in - SSE 4.6 mph - -  
5:00 AM 45.5 °F 43.2 °F 40.6 °F 83% 30.39 in - SSE 4.6 mph - N/A   Unknown
6:00 AM 45.5 °F 42.5 °F 40.3 °F 82% 30.38 in - South 5.8 mph - N/A   Unknown
7:00 AM 45.7 °F 42.0 °F 41.2 °F 84% 30.38 in - SSE 6.9 mph - N/A   Unknown
8:00 AM 46.0 °F 41.9 °F 42.4 °F 87% 30.38 in - SE 8.1 mph - N/A   Unknown
10:00 AM 46.8 °F - 41.7 °F 83% 30.36 in - ESE 17.3 mph - N/A   Unknown
11:00 AM 47 °F - 43 °F 80% 30.34 in - ESE 25.3 mph - -  
11:00 AM 46.6 °F - 42.8 °F 87% 30.34 in - ESE 25.3 mph - N/A   Unknown
12:00 PM 46.4 °F 37.5 °F 42.8 °F 87% 30.33 in - ESE 27.6 mph - N/A   Unknown
1:00 PM 46.2 °F 37.1 °F 42.4 °F 87% 30.31 in - ESE 28.8 mph - N/A   Unknown
2:00 PM 46.2 °F 37.5 °F 43.2 °F 89% 30.30 in - ESE 26.5 mph - N/A   Unknown
3:00 PM 46.4 °F 37.2 °F 43.5 °F 90% 30.27 in - ESE 29.9 mph - N/A   Unknown
4:00 PM 46.6 °F - 43.5 °F 89% 30.24 in - ESE 32.2 mph - N/A   Unknown
5:00 PM 47 °F - 43 °F 81% 30.21 in - ESE 34.5 mph - -  
5:00 PM 46.6 °F - 43.0 °F 87% 30.21 in - ESE 34.5 mph - N/A   Unknown
6:00 PM 46.9 °F - 43.9 °F 89% 30.20 in - ESE 33.4 mph 39.1 mph N/A   Unknown
7:00 PM 46.9 °F - 44.1 °F 90% 30.18 in - ESE 32.2 mph - N/A   Unknown
8:00 PM 46.9 °F - 44.1 °F 90% 30.16 in - ESE 32.2 mph - N/A   Unknown
9:00 PM 47.3 °F - 44.6 °F 90% 30.14 in - ESE 33.4 mph - N/A   Unknown
10:00 PM 47.1 °F - 44.6 °F 91% 30.13 in - ESE 32.2 mph - N/A   Unknown
11:00 PM 47 °F - 44 °F 86% 30.11 in - ESE 29.9 mph - -  
11:00 PM 46.9 °F - 44.2 °F 90% 30.11 in - ESE 29.9 mph - N/A   Unknown